Location: Boone Canyon
(38.3180°N, 119.2504°W)
Time: 16:55:36
(UTC+00:00)

Cosmos 1937 Rocket - Pass Details

Date: 18 September 2020
Orbit: 747 x 779 km, 74.0° (Epoch: 19 October)

Event Time Altitude Azimuth Distance (km) Brightness Sun altitude
Rises 12:37:23 0° 346° (NNW) 3,206 6.7 -13.3°
Reaches altitude 10° 12:39:49 10° 351° (N) 2,275 6.0 -12.9°
Maximum altitude 12:44:51 53° 68° (ENE) 921 4.4 -11.9°
Drops below altitude 10° 12:49:50 10° 145° (SE) 2,257 6.3 -10.9°
Sets 12:52:14 0° 150° (SSE) 3,178 7.0 -10.5°
